Regional Weather Roundup
Issued by NWS

Home | Current Version | Previous Version | Text Only | Print | Product List | Glossary On
Versions: 1 2 3 4 5 6 7 8 9 10 11 12 13 14 15 16 17 18 19 20 21 22 23 24 25 26 27 28 29 30 31 32 33 34 35 36 37 38 39 40 41 42 43 44 45 46 47 48 49 50
000
ASUS46 KSTO 202015
RWRCA

NORTHERN AND CENTRAL CA REGIONAL WEATHER ROUNDUP
NATIONAL WEATHER SERVICE SACRAMENTO CA
100 PM PDT WED SEP 20 2017

NOTE: FAIR INDICATES FEW OR NO CLOUDS BELOW 12,000 FEET WITH NO
SIGNIFICANT WEATHER AND/OR OBSTRUCTIONS TO VISIBILITY.

CAZ001-003-202100-
NORTHWEST AREA

CITY           SKY/WX    TMP DP  RH WIND       PRES   REMARKS
CRESCENT CITY  MOSUNNY   62  54  74 S9        29.92S
UKIAH          PTSUNNY   68  53  58 VRB6      29.89F
$$

CAZ006-505>513-202100-
BAY AREA

CITY           SKY/WX    TMP DP  RH WIND       PRES   REMARKS
SANTA ROSA     PTSUNNY   74  54  49 VRB6      29.87F
SAN RAFAEL     N/A       70  MM  MM MISG
NAPA           PTSUNNY   77  54  44 W15       29.88F
CONCORD        PTSUNNY   73  58  59 W9        29.89F
OAKLAND CITY   N/A      MM  MM  MM MISG
OAKLAND        MOSUNNY   71  61  70 W14       29.92F
SAN FRAN CITY  N/A       66  MM  82 MISG
SAN FRAN ARPT  PTSUNNY   70  58  65 W14       29.92F
LIVERMORE      PTSUNNY   70  59  68 SW13      29.91F
HAYWARD        MOSUNNY   71  58  63 W12       29.92F
REDWOOD CITY   N/A       72  MM  66 MISG
MOFFETT ARPT   MOSUNNY   72  60  66 N9        29.93F
SAN JOSE ARPT  MOSUNNY   73  59  61 VRB5      29.92F
$$
CAZ034-037-514>518-202100-
CENTRAL COAST

CITY           SKY/WX    TMP DP  RH WIND       PRES   REMARKS
WATSONVILLE    SUNNY     72  58  61 SW13      29.94F
SALINAS        SUNNY     73  58  59 W12       29.92F
MONTEREY       SUNNY     70  60  70 W8        29.96F
SAN LUIS OBISP SUNNY     77  53  43 NW24      29.87F
SANTA MARIA    SUNNY     75  54  47 NW18      29.89S
$$
CAZ015-016-202100-
NORTHERN SACRAMENTO VALLEY

CITY           SKY/WX    TMP DP  RH WIND       PRES   REMARKS
REDDING        PTSUNNY   74  50  42 S16       29.77F
RED BLUFF      PTSUNNY   75  54  47 S15G22    29.80F
OROVILLE       PTSUNNY   78  54  43 S18G28    29.83F
$$
CAZ016>018-202100-
SOUTHERN SACRAMENTO VALLEY

CITY           SKY/WX    TMP DP  RH WIND       PRES   REMARKS
AUBURN         PTSUNNY   72  72 100 S10G17    29.90F
LINCOLN        MOCLDY    77  52  41 S15       29.84F
MARYSVILLE     MOSUNNY   77  55  46 S16G25    29.83F
SAC INTL ARPT  PTSUNNY   76  55  48 VRB3      29.83F
MATHER AIRPORT PTSUNNY   75  55  50 SW13G18   29.86F
DOWNTOWN SAC   N/A       78  MM  MM MISG
SAC EXEC ARPT  MOSUNNY   75  58  55 S12       29.85F
VACAVILLE      CLOUDY    78  56  46 SW16G22   29.87F
$$
CAZ019>021-202100-
SAN JOAQUIN VALLEY

CITY           SKY/WX    TMP DP  RH WIND       PRES   REMARKS
STOCKTON       MOSUNNY   77  59  53 W10G20    29.88F
MODESTO        SUNNY     77  56  48 W12       29.89F
MERCED         SUNNY     78  54  43 N8        29.88F
LEMOORE        SUNNY     80  50  34 NW7       29.90F
FRESNO         SUNNY     77  45  32 NW7       29.90F
HANFORD        SUNNY     79  48  33 W9        29.90F
PORTERVILLE      N/A     77  49  37 VRB5      29.91F
BAKERSFIELD    SUNNY     77  46  33 W9        29.90F
$$
CAZ011-012-071-202100-
NORTHERN MOUNTAINS

CITY           SKY/WX    TMP DP  RH WIND       PRES   REMARKS
YREKA          PTSUNNY   60  42  51 W18       29.83R
MOUNT SHASTA   CLOUDY    58  45  62 VRB3      29.81F
ALTURAS        CLOUDY    59  36  42 W20G29    29.80F
$$
CAZ011-012-071-202100-
SIERRA NEVADA MTNS

CITY           SKY/WX    TMP DP  RH WIND       PRES   REMARKS
BLUE CANYON    CLOUDY    51  44  77 S15       29.98F
TRUCKEE        PTSUNNY   54  37  54 S15G21    29.96F
TAHOE VLY ARPT CLOUDY    56  37  49 S20G36    29.94F
MAMMOTH LAKES  FAIR      67  31  25 SW20G31   29.99F
$$




USA.gov is the U.S. government's official web portal to all federal, state and local government web resources and services.